Content
SEND FEEDBACK

Daily
Averages
Monthly
Summary
United States of America

ST. LOUIS - SAINT LOUIS UNIVERSITY, MISSOURI


Home > North America > United States > Missouri
Elevation: 580 feet     Latitude: 38 38N     Longitude: 090 14W

WEATHER
 
SELECT A DAY
Number of Records: 186,071;   Date Range: 1/1/95 - 7/27/14
 
SHARE

PRINT THIS DATA

[ ← Previous Day ]
WEATHER ALMANAC - APRIL 10, 2013
[ Next Day → ]
[ °C ]   °F
Weather ElementAverageHighLow
Temperature69.1 °F82.9 °F (1:53 pm)60.8 °F (10:15 pm)
Dewpoint62.3 °F66 °F (9:53 am)60.1 °F (8:53 pm)
Humidity80.8 %100 % (10:15 pm)49 % (1:53 pm)
Barometer29.72 in29.81 in (7:53 am)29.60 in (6:53 pm)
Wind Speed7.3 mph20.7 mph (3:53 pm)
Wind Gust38 mph (8:28 pm)
Weather ElementAverage
Visibility7.7 mi
Wind DirectionESE (120 °)

Weather ElementTotal
Precipitation2.61 in
Cooling Degree Days6.8 (Base 65)
Growing Degree Days21.9 (Base 50)
Averaged from 38 records on April 10, 2013
WEATHER CONDITIONS BREAKOUT
WIND DIRECTION BREAKOUT
WEATHER BY HOUR - APRIL 10, 2013
[ °C ]   °F
Local TimeTemperatureDewpointHumidityBarometerVisibilityWind DirectionWind SpeedGust SpeedPrecipitationEventsConditions
1:53 AM68.0 °F61.0 °F78 %29.79 in10.0 miSSE (150°)6.9 mphClear
2:53 AM66.9 °F62.1 °F84 %29.80 in10.0 miSE (140°)5.8 mphOvercast
3:53 AM68.0 °F62.1 °F81 %29.77 in10.0 miSSE (150°)6.9 mphPartly Cloudy
4:53 AM66.9 °F62.1 °F84 %29.76 in10.0 miSouth (180°)4.6 mphClear
5:53 AM66.9 °F62.1 °F84 %29.75 in10.0 miSSE (160°)6.9 mphClear
6:53 AM69.1 °F63.0 °F81 %29.77 in10.0 miSSE (160°)5.8 mphClear
7:53 AM69.1 °F64.0 °F84 %29.81 in10.0 miWNW (300°)5.8 mphMostly Cloudy
8:53 AM71.1 °F64.0 °F78 %29.81 in10.0 miCalmOvercast
9:10 AM71.6 °F64.4 °F78 %29.81 in10.0 miESE (110°)3.5 mphMostly Cloudy
9:53 AM73.0 °F66.0 °F79 %29.81 in10.0 miCalmOvercast
10:53 AM75.9 °F64.9 °F69 %29.81 in10.0 miSouth (190°)10.4 mphMostly Cloudy
12:53 PM82.0 °F64.0 °F54 %29.77 in10.0 miSouth (180°)13.8 mph26.5 mphScattered Clouds
1:53 PM82.9 °F62.1 °F49 %29.74 in10.0 miSouth (190°)16.1 mph24.2 mphScattered Clouds
2:53 PM82.9 °F64.0 °F53 %29.71 in10.0 miSouth (190°)18.4 mph26.5 mphPartly Cloudy
3:53 PM81.0 °F64.0 °F56 %29.67 in10.0 miSouth (180°)20.7 mph34.5 mphPartly Cloudy
4:53 PM78.1 °F64.0 °F62 %29.64 in10.0 miSSE (160°)16.1 mph25.3 mphClear
5:53 PM78.1 °F64.0 °F62 %29.64 in10.0 miSouth (170°)11.5 mphClear
6:53 PM77.0 °F64.9 °F66 %29.60 in10.0 miSSE (160°)12.7 mph20.7 mphPartly Cloudy
7:29 PM75.2 °F64.4 °F69 %29.61 in10.0 miSouth (170°)16.1 mph24.2 mph0.00 inRain-ThunderstormLight Thunderstorms and Rain
7:44 PM75.2 °F62.6 °F65 %29.61 in10.0 miSouth (170°)15.0 mph26.5 mph0.00 inMostly Cloudy
7:51 PM75.2 °F64.4 °F69 %29.62 in10.0 miSouth (170°)13.8 mph26.5 mph0.00 inRain-ThunderstormLight Rain
7:53 PM75.0 °F64.0 °F69 %29.62 in10.0 miSouth (170°)10.4 mph25.3 mph0.00 inRain-ThunderstormLight Rain
8:28 PM64.4 °F60.8 °F88 %29.68 in2.5 miVariable5.8 mph38.0 mph0.19 inRain-ThunderstormHeavy Thunderstorms and Rain
8:53 PM62.1 °F60.1 °F93 %29.70 in1.8 miCalm0.60 inRain-ThunderstormHeavy Thunderstorms and Rain
9:04 PM62.6 °F60.8 °F94 %29.71 in2.0 miCalm0.07 inRain-ThunderstormHeavy Thunderstorms and Rain
9:15 PM62.6 °F60.8 °F94 %29.74 in3.0 miSouth (190°)3.5 mph0.11 inRain-ThunderstormThunderstorms and Rain
9:19 PM62.6 °F60.8 °F94 %29.73 in3.0 miCalm0.13 inRain-ThunderstormThunderstorms and Rain
9:22 PM62.6 °F60.8 °F94 %29.73 in2.5 miWSW (250°)3.5 mph0.15 inRain-ThunderstormThunderstorms and Rain
9:41 PM62.6 °F60.8 °F94 %29.71 in3.0 miCalm0.24 inRain-ThunderstormRain
9:45 PM62.6 °F60.8 °F94 %29.71 in3.0 miCalm0.25 inRain-ThunderstormRain
9:53 PM62.1 °F60.1 °F93 %29.71 in5.0 miCalm0.27 inRain-ThunderstormRain
10:06 PM62.6 °F60.8 °F94 %29.72 in3.0 miCalm0.05 inRainHeavy Rain
10:15 PM60.8 °F60.8 °F100 %29.73 in3.0 miSSE (150°)3.5 mph0.09 inRain-ThunderstormRain
10:37 PM60.8 °F60.8 °F100 %29.69 in4.0 miEast (100°)6.9 mph0.19 inRainLight Rain
10:53 PM61.0 °F60.1 °F97 %29.69 in5.0 miEast (90°)10.4 mph0.21 inRainLight Rain
11:13 PM62.6 °F60.8 °F94 %29.69 in10.0 miESE (120°)9.2 mph0.02 inRainLight Rain
11:51 PM60.8 °F60.8 °F100 %29.66 in10.0 miEast (100°)6.9 mph0.02 inOvercast
11:53 PM62.1 °F60.1 °F93 %29.65 in10.0 miESE (110°)5.8 mph0.02 inOvercast
Hourly data recorded from KCPS, located miles away from St. Louis - Saint Louis University, Missouri







STORIES FROM OUR PARTNERS